Location: Asheville, NC
(35.6000°N, 82.5500°W)
Time: 07:07:51
(UTC-05:00)

KKS-1 - Pass Details

Date: 16 February 2018
Orbit: 638 x 650 km, 98.3° (Epoch: 18 February)

Event Time Altitude Azimuth Distance (km) Brightness Sun altitude
Rises 05:57:24 0° 191° (S) 2,925 ? -16.6°
Reaches altitude 10° 05:59:50 10° 202° (SSW) 2,023 ? -16.1°
Maximum altitude 06:03:39 29° 263° (W) 1,176 ? -15.3°
Enters shadow 06:06:03 18° 310° (NW) 1,567 ? -14.8°
